Retour au catalogue

PRSC-EO1

ActifScienceSSO
NORAD 62726·PAYLOAD·🇨🇳 China
Ce nom de satellite n'a pas encore été confirmé par des sources officielles.

Lancé Jan 17, 2025 depuis Jiuquan Satellite Launch Center

Loading…

Prochains Passages (prochaines 24 heures)

TLE

FraisSource: Space-Track

Époque: Sep 14, 2026, 04:16 UTC

1 62726U 25012B   26257.17790806  .00003394  00000-0  15205-3 0  9998
2 62726  97.4159 328.9972 0007911 334.0827  26.0011 15.21902957 91781

Suivez PRSC-EO1 en temps réel avec AllMySat

Download on the App Store